Regional Weather Roundup
Issued by NWS

Home | Current Version | Previous Version | Graphics & Text | Print | Product List | Glossary Off
Versions: 1 2 3 4 5 6 7 8 9 10 11 12 13 14 15 16 17 18 19 20 21 22 23 24 25 26 27 28 29 30 31 32 33 34 35 36 37 38 39 40 41 42 43 44 45 46 47 48 49 50

000
ASUS43 KDTX 200510
RWRMI
MICHIGAN HOURLY REGIONAL WEATHER ROUNDUP
NATIONAL WEATHER SERVICE DETROIT/PONTIAC MI
100 AM EDT SUN APR 20 2014

NOTE: "FAIR" INDICATES FEW OR NO CLOUDS BELOW 12,000 FEET WITH NO
SIGNIFICANT WEATHER AND/OR OBSTRUCTION TO VISIBILITY.

MIZ047>049-052>055-059>063-066>070-074>076-081>083-200600-
SOUTHEAST LOWER MICHIGAN

CITY           SKY/WX    TMP DP  RH WIND       PRES   REMARKS
ADRIAN         PTCLDY    38  30  73 E5        30.35R WCI  34
ALMA           PTCLDY    37  35  90 CALM      30.33F
ANN ARBOR      PTCLDY    37  29  72 E3        30.35S
BAD AXE        CLEAR     36  29  76 CALM      30.37R
CARO           PTCLDY    40  33  76 SE6       30.35F
DETROIT CITY   CLEAR     43  28  55 CALM      30.37R
DETROIT        PTCLDY    41  29  62 N5        30.37R
FLINT          PTCLDY    42  31  64 SE5       30.35F
GROSSE ILE     CLEAR     39  28  65 NE6       30.35S WCI  35
HILLSDALE      PTCLDY    37  29  73 E7        30.32F WCI  32
HOWELL         PTCLDY    38  30  72 E3        30.34S

CITY           SKY/WX    TMP DP  RH WIND       PRES   REMARKS
JACKSON        PTCLDY    39  30  70 CALM      30.33F
LAMBERTVILLE   PTCLDY    41  32  70 CALM      30.34S
LANSING        PTCLDY    44  30  57 SE3       30.33F
LAPEER         FAIR      37  32  84 CALM      30.36F
MASON          PTCLDY    40  32  75 CALM      30.33S
MONROE         CLEAR     37  32  81 NE3       30.34S
MT. CLEMENS    CLEAR     38  32  79 N2        30.36R
PONTIAC        PTCLDY    38  29  70 CALM      30.35F
PORT HOPE        N/A     34  28  79 CALM      30.35R
PORT HURON     CLEAR     32  30  93 CALM      30.38F
TRI CITIES     PTCLDY    40  34  79 SE7       30.34F
TROY           CLEAR     42  28  56 CALM      30.38S
SAGINAW HB     PTCLDY    41  34  75 S6        30.34F
YPSILANTI      PTCLDY    39  30  70 NE6       30.36R WCI  35
$$
MIZ043>046-050>051-056>058-064>065-071>073-077>080-200600-
SOUTHWEST LOWER MICHIGAN

CITY           SKY/WX    TMP DP  RH WIND       PRES   REMARKS
BATTLE CREEK   MOCLDY    46  28  49 SE6       30.32F
BENTON HARBOR  CLOUDY    47  28  47 SE9       30.28F
BIG RAPIDS     MOCLDY    44  32  62 CALM      30.30R
COLDWATER      PTCLDY    42  29  60 E3        30.32S
FREMONT        FAIR      49  29  45 SE6       30.28S
HOLLAND        MOCLDY    50  29  44 SE12      30.29F
GRAND RAPIDS   MOCLDY    48  27  44 SE10      30.31F
IONIA          FAIR      45  31  58 S5        30.32S
KALAMAZOO      MOCLDY    46  28  49 SE5       30.32S
LUDINGTON      CLOUDY    49  32  52 SE6       30.26S
MARSHALL       MOCLDY    39  29  65 CALM      30.32F
MOUNT PLEASANT PTCLDY    38  32  79 CALM      30.32F
MUSKEGON       MOCLDY    52  29  41 SE12      30.28S
SOUTH HAVEN    MOCLDY    49  27  43 SE6       30.29F
$$
MIZ016>042-200600-
NORTHERN LOWER MICHIGAN

CITY           SKY/WX    TMP DP  RH WIND       PRES   REMARKS
ALPENA         PTCLDY    32  24  72 SE3       30.34R
BEAVER ISLAND  CLOUDY    46  30  53 S8        30.25S
BELLAIRE       CLOUDY    46  28  50 S7        30.27S
CADILLAC       MOCLDY    42  31  64 SE3       30.27R
CHARLEVOIX     CLOUDY    47  30  51 SE10      30.27F
FRANKFORT      MOCLDY    48  33  57 SE9G16    30.23S
GAYLORD        MOCLDY    37  25  61 S8        30.28S WCI  31
GRAYLING       MOCLDY    33  24  70 SE5       30.31R WCI  28
HARBOR SPRINGS CLOUDY    44  28  54 CALM      30.26F
HOUGHTON LAKE  MOCLDY    37  28  70 SE8       30.30F WCI  31
MANISTEE       MOCLDY    48  30  49 SE6       30.25F
OSCODA         PTCLDY    30  26  85 CALM      30.34S
PELLSTON       CLOUDY    42  25  50 SE8       30.28S
ROGERS CITY    MOCLDY    34  27  76 SE6       30.33S WCI  29
TRAVERSE CITY  MOCLDY    46  30  53 VRB5      30.25S
$$
MIZ007>008-015-200600-
EASTERN UPPER MICHIGAN

CITY           SKY/WX    TMP DP  RH WIND       PRES   REMARKS
KINROSS        CLOUDY    34  30  86 E10       30.32R WCI  26
MACKINAC ISLAN CLOUDY    38  25  59 SE9       30.28R WCI  32
NEWBERRY       CLOUDY    34  29  82 E5        30.25F WCI  30
S. S. MARIE    LGT RAIN  34  24  67 E7        30.32F WCI  28
MUNISING         N/A     38  33  82 S8G33     30.17F WCI  32
$$
MIZ004>006-011>014-085-200600-
CENTRAL UPPER MICHIGAN

CITY           SKY/WX    TMP DP  RH WIND       PRES   REMARKS
MANISTIQUE     LGT RAIN  36  32  87 SE6       30.23F WCI  31
ESCANABA       CLOUDY    36  32  87 E7        30.21S WCI  30
MENOMINEE      CLOUDY    45  34  65 SE6       30.17S
SAWYER-GWINN   CLOUDY    38  35  91 S12       30.15S WCI  30
$$
MIZ001>003-009>011-084-200600-
WESTERN UPPER MICHIGAN

CITY           SKY/WX    TMP DP  RH WIND       PRES   REMARKS
IRON MOUNTAIN  LGT RAIN  40  37  89 SE7       30.12F
HOUGHTON       MOCLDY    36  30  79 E7        30.05F WCI  30
COPPER HARBOR    N/A     38  32  79 SW13G25   30.04F WCI  30
IRONWOOD       MOCLDY    50  37  62 S16G24    29.98S
$$

ABBREVIATIONS USED IN REMARKS
   TC - TEMPERATURE IN CELSIUS
  WCI - WIND CHILL INDEX
   HX - HEAT INDEX
  VSB - VISIBILITY




USA.gov is the U.S. government's official web portal to all federal, state and local government web resources and services.